Location: Elmsmere
(40.9284°N, 73.8207°W)
Time: 04:29:38
(UTC+00:00)

SKYMED 2 - Pass Details

Date: 29 October 2020
Orbit: 621 x 623 km, 97.9° (Epoch: 29 November)

Event Time Altitude Azimuth Distance (km) Brightness Sun altitude
Rises 22:43:07 0° 17° (NNE) 2,911 6.7 -9.8°
Reaches altitude 10° 22:45:22 10° 22° (NNE) 1,999 5.9 -10.2°
Maximum altitude 22:49:38 55° 100° (E) 751 3.6 -11.0°
Drops below altitude 10° 22:53:52 10° 179° (S) 1,983 6.2 -11.8°
Sets 22:56:05 0° 183° (S) 2,884 7.1 -12.2°
